カタログに戻る

CZ-3C DEB

運用中GTO
NORAD 39346·DEBRIS·🇨🇳 China

打ち上げ Oct 31, 2010 から Xichang Satellite Launch Center

Loading…

TLE

経年Source: Space-Track

元期: Sep 14, 2026, 05:23 UTC

1 39346U 10057L   26257.22449683  .00000142  00000-0  48174-2 0  9991
2 39346  20.0424 138.3226 7198652  77.2767 348.2991  2.17977775102885

AllMySatでCZ-3C DEBをリアルタイム追跡

Download on the App Store